Miscellaneous Local Product
Issued by NWS Hastings, NE

Home | Current Version | Previous Version | Graphics & Text | Print | Product List | Glossary On
Versions: 1 2 3 4 5 6 7 8 9 10 11 12 13 14 15 16 17 18 19 20 21 22 23 24 25 26 27 28 29 30 31 32 33 34 35 36 37 38 39 40 41 42 43 44 45 46 47 48 49 50
028
AXUS43 KGID 281802
MISGRI

GID CWA HOURLY WEATHER ROUNDUP
NATIONAL WEATHER SERVICE HASTINGS NE
100 PM CDT TUE MAR 28 2017

NOTE: "FAIR" INDICATES FEW OR NO CLOUDS BELOW 12,000 FEET WITH NO
SIGNIFICANT WEATHER AND/OR OBSTRUCTIONS TO VISIBILITY.

...SOUTH CENTRAL NEBRASKA...

CITY           SKY/WX    TMP DP  RH WIND       PRES   REMARKS
GRAND ISLAND   CLOUDY    50  41  71 E15       30.05F
HASTINGS       CLOUDY    52  41  66 E13       30.04F
KEARNEY        CLOUDY    54  39  58 E14       30.02F
ORD            CLOUDY    51  39  63 E12       30.05F
YORK           CLOUDY    48  41  76 E12       30.07F
AURORA         CLOUDY    49  43  78 E15       30.05F
LEXINGTON      CLOUDY    50  43  75 E12       30.01F
HOLDREGE       CLOUDY    52  42  68 E13       30.00F
HEBRON         CLOUDY    52  40  65 E14       30.03F

...NEBRASKA PANHANDLE...

CITY           SKY/WX    TMP DP  RH WIND       PRES   REMARKS
CHADRON        LGT RAIN  44  41  89 NE12      30.01S
ALLIANCE       LGT RAIN  44  42  93 E17       29.95F
SCOTTSBLUFF    LGT RAIN  47  43  86 E21       29.92F
SIDNEY         LGT RAIN  43  42  97 E17       29.92S FOG

...WESTERN AND NORTH CENTRAL NEBRASKA...

CITY           SKY/WX    TMP DP  RH WIND       PRES   REMARKS
VALENTINE      CLOUDY    47  43  86 E6        30.07R
AINSWORTH      CLOUDY    48  44  86 E7        30.07R
ONEILL         CLOUDY    49  43  78 E9        30.10S
BROKEN BOW     CLOUDY    48  43  82 E12       30.04F
IMPERIAL       LGT RAIN  46  43  89 E13       29.94F
NORTH PLATTE   LGT RAIN  45  44  97 E13       30.01F FOG
MCCOOK         LGT RAIN  46  45  96 E14       29.97S FOG

...EASTERN NEBRASKA...

CITY           SKY/WX    TMP DP  RH WIND       PRES   REMARKS
NORFOLK        CLOUDY    51  39  63 SE12      30.09F
SO SIOUX CITY  MOSUNNY   57  40  52 NE12      30.12F
TEKAMAH        CLOUDY    50  42  74 E8        30.13F
COLUMBUS       CLOUDY    46  39  76 E12       30.11F
ALBION         CLOUDY    49  40  70 E10       30.09F
OMAHA EPPLEY   CLOUDY    49  41  74 E9        30.12F
OFFUTT AFB     CLOUDY    49  41  75 NE8       30.10F
MILLARD        CLOUDY    50  43  76 NE3       30.11F
LINCOLN        CLOUDY    50  40  68 E12       30.10F
NEBRASKA CITY  CLOUDY    49  38  66 E8        30.10F
BEATRICE       CLOUDY    51  42  72 E8        30.06F
FALLS CITY     CLOUDY    51  43  74 E10       30.08F

...NORTHERN KANSAS...

CITY           SKY/WX    TMP DP  RH WIND       PRES   REMARKS
GOODLAND       RAIN      46  46 100 SE12      29.92R FOG
HILL CITY      CLOUDY    48  47  96 E14       29.97S FOG
NORTON         LGT RAIN  48  43  81 E8        29.97F
PHILLIPSBURG   CLOUDY    54  43  66 E14G21    29.99R
HAYS             N/A     52  43  71 E16       29.96F
RUSSELL        CLOUDY    53  43  68 E18       29.95F
CONCORDIA      CLOUDY    55  45  68 E10       30.00F
SALINA         CLOUDY    56  45  66 E13       29.99F
TOPEKA         CLOUDY    54  48  80 E7        30.05F



USA.gov is the U.S. government's official web portal to all federal, state and local government web resources and services.